Regional Weather Roundup
Issued by NWS

Home | Current Version | Previous Version | Graphics & Text | Print | Product List | Glossary On
Versions: 1 2 3 4 5 6 7 8 9 10 11 12 13 14 15 16 17 18 19 20 21 22 23 24 25 26 27 28 29 30 31 32 33 34 35 36 37 38 39 40 41 42 43 44 45 46 47 48 49 50
000
ASUS43 KMKX 010459
RWRWI

WISCONSIN REGIONAL WEATHER ROUNDUP
NATIONAL WEATHER SERVICE MILWAUKEE/SULLIVAN WI
1100 PM CST SAT JAN 31 2015

NOTE: "FAIR" INDICATES FEW OR NO CLOUDS BELOW 12,000 FEET WITH NO
SIGNIFICANT WEATHER AND/OR OBSTRUCTIONS TO VISIBILITY.

WIZ001-002-006>008-014>016-023>028-010600-
NORTHWEST WISCONSIN

CITY           SKY/WX    TMP DP  RH WIND       PRES   REMARKS
SUPERIOR ARPT  CLOUDY    10  -1  60 NE9       30.37S WCI  -3
ASHLAND        CLOUDY    16   7  67 E12       30.34R WCI   3
HAYWARD        CLOUDY    12   5  73 NE7       30.27R WCI   1
SIREN          CLOUDY    16   5  62 NE12G18   30.28R WCI   2
CUMBERLAND     CLOUDY    16   7  67 NE15      30.23S WCI   1
RICE LAKE      CLOUDY    17   8  67 NE12      30.25S WCI   4
CHETEK         CLOUDY    17   8  68 N8        30.24R WCI   6
LADYSMITH      CLOUDY    17   8  69 NE12G17   30.25R WCI   4
EAU CLAIRE     NOT AVBL
MENOMONIE      CLOUDY    20  10  65 NE13      30.22R WCI   8
NEW RICHMOND   CLOUDY    19   9  67 NE14      30.23R WCI   5
OSCEOLA        CLOUDY    20  10  66 NE12      30.28R WCI   8
$$

WIZ003>005-009-010-017-018-010600-
NORTH CENTRAL WISCONSIN

CITY           SKY/WX    TMP DP  RH WIND       PRES   REMARKS
MANITOWISH WTR CLOUDY     8   2  77 NE5       30.24R WCI  -1
ARBOR VITAE    MOCLDY    11   3  70 NE5       30.23S WCI   3
WOODRUFF       MOCLDY    11   3  70 NE5       30.23S WCI   3
RHINELANDER    CLOUDY    10   2  69 NE8       30.23R WCI  -2
EAGLE RIVER    CLOUDY    10   2  70 NE13      30.23S WCI  -6
LAND O LAKES   MOCLDY     7   2  81 NE6       30.25R WCI  -4
PHILLIPS       CLOUDY    11   3  70 NE12      30.23R WCI  -4
TOMAHAWK       CLOUDY    13   6  72 NE6       30.23R WCI   4
MEDFORD        CLOUDY    15   7  70 NE10G20   30.19R WCI   3
MERRILL        CLOUDY    15   7  69 E10       30.22R WCI   2
$$

WIZ029-030-035-036-043>047-010600-
CENTRAL WISCONSIN

CITY           SKY/WX    TMP DP  RH WIND       PRES   REMARKS
WAUSAU         CLOUDY    17   9  70 NE10G17   30.20R WCI   5
MOSINEE        CLOUDY    19  14  79 NE15      30.20S WCI   5
MARSHFIELD     CLOUDY    20  11  68 NE14      30.19R WCI   7
STEVENS POINT  CLOUDY    22  14  70 E13G18    30.19R WCI  10
WAUPACA        CLOUDY    23  16  73 E10       30.23R WCI  13
WAUTOMA        NOT AVBL
WISC RAPIDS    CLOUDY    25  16  68 E10       30.21R WCI  15
CAMP DOUGLAS   NOT AVBL
$$

WIZ011>013-019>022-031-037>040-048>050-010600-
NORTHEAST WISCONSIN

CITY           SKY/WX    TMP DP  RH WIND       PRES   REMARKS
ANTIGO         CLOUDY    13   6  73 NE15      30.21R WCI  -3
SHAWANO        CLOUDY    20  12  69 E14       30.27R WCI   7
OCONTO         CLOUDY    16   6  64 MISG      30.29S
STURGEON BAY   CLOUDY    14   3  62 N12G18    30.30R WCI   0
GREEN BAY      FLURRIES  17  11  77 NE26G32   30.28R WCI  -2
MANITOWOC      NOT AVBL
APPLETON       CLOUDY    19  10  68 NE18G25   30.23R WCI   4
CLINTONVILLE   CLOUDY    21  14  73 E15       30.25R WCI   8
OSHKOSH        CLOUDY    22  15  75 NE15G23   30.22R WCI   9
$$

WIZ032>034-041-042-053>061-010600-
SOUTHWEST WISCONSIN

CITY           SKY/WX    TMP DP  RH WIND       PRES   REMARKS
LA CROSSE      LGT SNOW  28  23  81 E6        30.17S WCI  22
SPARTA         CLOUDY    28  20  73 NE10      30.18S WCI  18
VIROQUA        CLOUDY    25  25 100 NE10      30.12S VSB 1   WCI  15
BOSCOBEL       LGT SNOW  29  25  85 NE7       30.14S VSB 3/4 WCI  22
PRAIRIE DU CHI LGT SNOW  29  26  88 NE9       30.11F WCI  21
PLATTEVILLE    CLOUDY    30  29  95 NE15      30.10S WCI  19
$$

WIZ056-057-062-063-064-067-068-010600-
SOUTH CENTRAL WISCONSIN

CITY           SKY/WX    TMP DP  RH WIND       PRES   REMARKS
REEDSBURG      LGT SNOW  25  23  94 NE7       30.16S WCI  17
BARABOO/DELLS  LGT SNOW  25  22  90 E8        30.17R VSB 3/4 WCI  16
LONE ROCK      NOT AVBL
MINERAL POINT  LGT SNOW  30  28  93 E10       30.10S VSB 1   WCI  21
MADISON        LGT SNOW  26  23  88 E10       30.16R FOG     WCI  16
MIDDLETON      CLOUDY    28  26  94 E10       30.16S WCI  18
WATERTOWN      LGT SNOW  26  25  97 NE7       30.17R WCI  18
MONROE         LGT SNOW  30  28  93 NE10      30.11S WCI  21
JANESVILLE     LGT SNOW  32  30  93 E9        30.14S WCI  24
$$

WIZ051-052-058>065-066-070>072-010600-
SOUTHEAST WISCONSIN

CITY           SKY/WX    TMP DP  RH WIND       PRES   REMARKS
MILWAUKEE      LGT SNOW  30  26  85 NE12      30.18S FOG     WCI  20
WAUKESHA       MIX PCPN  27  27 100 NE5       30.18R WCI  21
MILWAUKEE/TIMM LGT SNOW  28  27  93 NE8       30.19R WCI  20
RACINE         LGT SNOW  30  28  92 E15       30.19R VSB 1   WCI  19
BURLINGTON     LGT SNOW  27  26  96 E6        30.16S WCI  21
KENOSHA        LGT SNOW  30  28  92 NE8       30.16S VSB 1   WCI  22
FOND DU LAC    CLOUDY    24  17  74 NE15G23   30.22R WCI  11
SHEBOYGAN      CLOUDY    25  19  78 NE21G29   30.22R WCI  11
WEST BEND      CLOUDY    27  21  80 NE3       30.19R
JUNEAU         LGT SNOW  25  22  87 E8        30.19R WCI  17
$$

LSZ147-162-010600-
LAKE SUPERIOR

STATION/POSITION TIME  TEMP    WIND        PRES    WAVE
                       AIR SEA DIR/SP/G            HT/PER
                 (UTC) (F)     (DEG/KT/KT) (MB)    (FT/S)
DEVILS ISLAND    0400   15      50/ 24/ 27 1029.6R
PORT WING        0400   17      60/ 13/ 17 1027.8
SAXON HARBOR     0400   16      80/  4/ 10 1027.1R
$$

LMZ867-665-643>646-010600-
LAKE MICHIGAN

STATION/POSITION TIME  TEMP    WIND        PRES    WAVE
                       AIR SEA DIR/SP/G            HT/PER
                 (UTC) (F)     (DEG/KT/KT) (MB)    (FT/S)
NORTHPORT PIER   0426   15     360/ 18/ 23 1026.4S
SISTER BAY       0313   15      10/ 18/ 25   N/A
KEWAUNEE LAKESHO 0400   21      30/ 16/ 26 1023.5F
SHEBOYGAN LAKESH 0400   27      30/ 25/ 28 1023.7F
PORT WASHINGTON  0400   31      40/ 15/ 20 1022.7F
MILWAUKEE LAKESH 0400   31      50/ 15/ 18   N/A
KENOSHA   LAKESH 0400   30      50/ 12/ 14 1021.7S
$$

TC  - TEMPERATURE IN CELSIUS
VSB - VISIBILITY IN STATUTE MILES
WCI - WIND CHILL INDEX
HX  - HEAT INDEX



USA.gov is the U.S. government's official web portal to all federal, state and local government web resources and services.